7 * 24
多渠道服务支持
STARLINK-37607(NORAD编号69514)是美国太空探索技术公司(SpaceX)星链低轨互联网星座的组网卫星。该卫星由猎鹰9号火箭发射入轨,属于星链第二代组网批次,运行于高度约550-570公里的近地轨道,具备低延迟宽带通信传输能力。 作为全球最大商业卫星星座的组成部分,它在轨为全球70余个国家和地区的千万级用户提供卫星互联网服务,覆盖陆地、跨极地航线等场景,目前运行状态稳定,相关轨道数据由NORAD统一监测管理,支撑空间交通避碰等安全工作。
美国
(US)
| 数据来源 | 国际轨道数据 |
| 星历时间: | 2026-06-19T14:00:02+0800 13小时前 查看轨道信息 |
| 半长轴: | 6641.678km |
| 偏心率: | 0.0000763 |
| 轨道倾角: | 53.159° |
| 近地点辐角 | 70.686° |
| 升交点赤经 | 312.198° |
| 平近点角 | 53.825° |
| 近地点: | 263.034km |
| 远地点: | 264.048km |
| 周期: | 89.779分钟 |
| 每日圈数: | 16.039325 |